Dewpoint
54 54 53 54 55 53 55 53 51 49 47 50 51 54 53 54 53 55 55 52 49 48 48 50 51 52 53 53 54 55 56 57 57 58 58 59 59 59
54 53 54 53 54 55 55 54 54 51 49 48 49 53 54 52 52 52 52 50 48 47 47 47 48 50 50 51 51 52 53 54 55 56 56 57 58 59
55 54 53 53 53 53 54 54 53 53 51 50 50 54 54 55 54 55 53 53 52 47 46 46 46 46 47 48 48 49 50 51 52 53 54 55 57 57
53 56 55 54 54 54 53 53 54 54 51 50 51 52 55 55 53 52 52 52 52 50 47 46 46 45 45 45 46 46 47 48 49 50 51 52 54 55
55 55 55 56 56 55 55 54 54 53 53 53 52 53 53 55 54 54 53 53 53 50 47 46 46 46 45 45 44 45 45 45 46 46 47 48 49 51
56 57 56 56 56 57 56 56 55 55 55 53 53 53 53 54 55 54 54 55 55 53 51 49 48 47 46 46 44 44 45 45 45 44 44 44 44 46
56 55 56 55 50 53 54 56 56 55 54 53 53 53 53 53 53 53 53 53 54 56 55 56 56 55 55 47 48 45 45 44 44 45 45 44 43 43
55 55 56 50 51 45 46 46 52 55 54 52 51 50 50 50 51 52 52 51 50 54 54 54 55 55 55 54 46 44 43 43 44 44 42 40 38 38
53 53 53 53 50 54 47 43 44 43 44 52 51 51 51 51 51 51 51 51 50 52 52 51 43 41 39 40 41 41 41 40 39 38 38 37 37 36
54 53 53 53 53 52 52 52 51 51 49 48 50 52 50 44 46 50 51 51 50 39 38 45 35 32 33 33 37 38 37 37 36 35 34 34 33 33
53 46 38 41 36 39 48 51 50 49 36 39 34 33 33 32 33 38 41 39 45 33 29 33 32 28 27 27 31 32 32 32 32 32 32 32 32 32
34 32 32 34 34 35 41 43 45 44 33 31 29 29 29 29 29 29 31 34 35 31 28 29 28 30 24 26 27 28 29 31 31 31 31 31 31 30
30 29 29 31 31 32 33 34 34 32 30 28 27 26 25 25 24 24 25 26 26 23 26 29 28 28 27 24 27 28 28 28 29 29 29 29 28 28
27 28 28 28 28 27 28 28 28 27 26 23 23 22 23 23 23 23 23 23 23 23 25 28 25 26 26 24 23 26 26 26 27 25 26 25 24 23
27 26 25 25 25 25 24 24 24 23 23 20 20 21 24 25 27 26 25 24 23 23 24 25 25 26 25 24 22 22 22 22 22 20 19 18 18 16
25 25 24 24 23 24 26 26 26 26 24 24 23 24 24 22 23 24 23 22 20 18 19 21 22 22 21 20 20 17 14 15 10 11 12 15 15 17
25 25 24 24 23 23 23 23 24 24 23 23 23 22 21 21 20 21 18 17 15 11 10 12 13 14 16 17 14 10 6 5 6 11 9 10 12 14
23 22 22 21 21 21 20 20 20 19 20 20 20 18 17 16 15 14 14 14 12 9 9 7 10 9 8 8 11 6 5 5 6 7 7 10 11 15
20 19 19 19 19 18 17 17 16 15 15 15 15 15 14 12 13 12 12 10 8 5 3 5 6 7 6 6 6 6 7 7 9 10 10 11 13 14
16 16 16 16 15 14 13 12 12 13 12 11 13 13 13 12 11 9 9 10 7 5 3 2 3 5 7 8 9 10 8 11 11 12 12 13 13 14
13 13 14 13 13 12 13 12 12 12 12 12 12 11 12 10 9 8 8 6 6 3 2 1 2 6 5 8 10 9 9 7 9 11 12 13 13 14
11 10 10 10 10 10 11 11 11 10 10 9 10 10 10 9 7 7 8 7 4 5 2 2 1 2 4 3 4 8 8 10 10 10 11 12 14 14
8 8 8 8 8 8 6 7 6 8 6 7 8 7 8 7 6 6 6 5 3 4 3 3 2 2 2 2 3 7 7 9 9 10 14 12 15 18
Lifted_Index
5 5 5 4 4 4 4 4 4 4 4 4 4 4 4 4 4 4 3 3 3 3 3 3 3 2 2 2 3 3 3 2 2 1 1 1 1 1
5 5 5 4 4 4 4 4 4 4 4 4 4 4 4 4 4 3 3 3 3 3 3 3 3 3 3 3 3 3 3 2 2 2 2 1 1 1
4 4 4 4 4 4 3 4 4 4 4 4 4 4 4 4 3 3 4 4 4 4 3 3 3 3 3 3 3 2 2 2 2 2 2 2 1 1
4 4 4 4 4 3 3 3 4 4 4 4 4 3 3 3 3 4 4 4 4 4 4 3 3 3 3 3 2 2 2 2 2 2 2 2 2 2
3 3 3 3 3 3 3 3 3 4 4 4 4 3 3 3 3 3 4 4 4 4 4 4 3 3 3 3 3 3 2 2 2 2 2 2 2 2
2 2 2 2 2 2 2 2 3 3 3 3 3 3 2 2 2 3 3 3 3 3 3 3 3 3 3 3 2 2 2 2 2 2 2 2 2 2
2 2 2 2 2 2 2 2 2 2 3 3 3 2 2 2 2 2 2 2 2 2 2 2 2 2 2 2 2 2 2 3 2 2 2 2 2 2
1 1 1 1 1 1 1 1 1 2 2 2 2 2 2 2 2 2 2 2 2 2 2 2 2 2 2 2 2 2 3 3 3 3 3 3 3 4
1 1 1 1 1 0 0 0 0 1 1 2 2 2 2 2 2 2 2 2 2 2 2 2 2 2 3 3 3 3 3 3 4 4 5 6 7 8
1 1 1 0 0 0 -0 -0 -0 0 0 1 2 2 3 3 3 2 2 2 2 3 3 3 3 3 4 5 6 7 7 7 7 9 10 11 13 13
1 1 1 1 0 0 0 0 0 0 1 1 2 3 4 4 4 3 3 3 3 4 5 5 5 5 6 9 12 13 14 14 14 15 16 16 17 17
1 2 2 2 1 1 1 1 1 1 2 3 3 4 5 5 6 6 5 5 4 5 7 8 8 8 9 13 16 18 19 19 19 19 19 20 20 20
2 3 3 3 3 3 3 2 2 3 4 4 5 6 7 8 9 10 10 10 9 9 11 12 12 12 12 14 17 20 21 21 21 21 21 21 21 21
5 5 6 7 7 6 6 6 6 6 6 6 7 8 10 12 14 15 15 15 15 15 16 17 16 16 15 15 17 20 21 22 22 21 22 22 23 23
9 10 11 11 11 11 11 11 11 11 10 10 11 12 14 16 18 18 19 19 18 19 20 20 19 19 18 17 18 19 20 21 22 23 23 24 24 25
13 13 14 14 14 14 15 15 15 15 14 14 15 16 18 18 19 19 19 18 18 18 20 21 21 21 21 20 20 20 21 22 24 25 25 25 25 26
15 14 14 14 15 15 16 16 17 17 17 17 17 18 18 18 18 18 18 17 17 17 19 22 23 23 23 23 22 22 23 23 25 25 25 24 24 24
15 14 14 15 15 15 16 17 17 18 18 18 18 18 18 18 18 18 18 18 18 19 21 23 24 23 23 23 24 24 23 23 24 24 24 23 22 23
15 14 15 15 16 16 17 17 18 18 19 19 19 19 19 19 19 20 20 20 21 21 22 23 23 22 21 21 23 24 24 23 23 23 23 22 22 22
15 15 16 17 18 18 19 19 20 20 21 21 21 21 21 21 21 21 21 21 22 22 22 22 23 22 21 21 22 24 24 24 23 23 22 22 21 21
17 18 18 19 20 21 21 22 22 22 22 22 22 22 22 22 22 22 22 22 22 22 22 22 23 24 23 22 21 22 23 24 23 23 22 21 20 20
20 20 21 21 22 22 23 23 23 23 23 23 23 23 23 23 22 22 22 22 22 22 22 23 23 24 23 22 21 21 21 22 22 22 21 20 19 19
21 21 22 22 22 22 23 23 23 23 23 23 23 23 23 23 23 23 23 22 22 22 22 23 23 23 22 22 21 20 20 20 20 20 20 20 19 18